Showing default

HAKUTO-R, 62717

Orbit data source: Space-Track

HAKUTO-R, 62717 is a payload satellite owned by iSpace (JP) in HEO that was launched on Wed, 15 Jan 2025 UTC via an FALCON 9 launch vehicle from the Air Force Eastern Test Range (AFETR). Payload-class satellites include a variety of spacecraft equipped with specific instruments for various scientific and technological missions. These include communications satellites like Starlink; space stations such as the ISS; scientific satellites like the Hubble; Earth observation satellites from companies like Planet Labs, Umbra, and HawkEye 360; GPS; miniature CubeSats for education and research; and military/defense satellites.

Loading next visibility...
Identifier
62717, 2025-010B
Orbit
HEO
Last TLE update
6 months ago
Origin
Manufacturer
ISPACE/ADSL
Mission
Operational Commercial Planetary
Bus & Motor
HAKUTO-R, AOCS
Mass
1,050 kg wet, 340 kg dry
Launch date (UTC)
2025-01-15 (6 months ago)
Launch vehicle
FALCON 9
Launch site
Air Force Eastern Test Range (AFETR)
Object type
Payload
Rocket body
Debris
Shape & HBR
Box + 4 Leg, 2.6 m
Radar Cross Section
9.360 m²

Expand to show TLE details & history

TLE from 6 months ago
0 HAKUTO-R
1 62717U 25010B   25015.31796730 -.00038243  31373-4  00000-0 0  9992
2 62717  35.1700   0.1839 9650900 345.5700   0.7230  0.10673359    01
Epoch: 2025-01-15T07:37Z
TLE epoch observation values (Epoch: 2025-01-15T07:37:52.374Z)
Latitude
25.60567°
Longitude
-93.6906°
Altitude
59,588.328 km
Speed
3.156 km/s
True Right ascension
09h 03m 09s
True Declination
25° 35' 28"
Sunlit
Object was in daylight at epoch
Visualization orbit readout
Latitude
-11.72084°
Longitude
-39.86736°
Altitude
109,562.188 km
Speed
2.18 km/s
Apparent Right ascension
12h 28m 33s
Apparent Declination
-13° 41' 54"
Sunlit
Object is in daylight
Visualization observer readout
Local Sidereal Time
18:22:51
Azimuth
258.525° W
Elevation
-7.665°
Doppler factor
1
Orbital elements
Apogee altitude
362,541.96 km
Perigee altitude
175.762 km
Semi-major axis
187,736.998 km
Eccentricity
0.96509
Inclination
35.17°
RAAN
0.1839°
Arg. of periapsis
345.57°
True anomaly
Unknown
Mean anomaly
0.723°
Eccentric anomaly
Unknown
Mean motion
0.02668 °/min
Orbital period
13,492.24 mins
BSTAR
0
Loading maneuver chart data...
Loading SW <> Apogee altitude chart data...
Loading historical data...
Loading historical data...
Loading historical data...
Loading historical data...
Loading historical data...
Loading historical data...
Loading historical data...
Other satellites on launch #10 in the year 2025 (2025-01-15 UTC)

HAKUTO-R Visibility forecast

Observer location: undefined°, undefined°

Span
Click to sort rows by Start time (UTC) header in descending order
Start Az.
Max El. time (UTC)
Max El. Az.
Max El.
End time (UTC)
End Az.
665 mins2025-07-03 17:03:08.589Z261.146° W2025-07-03 17:27:08.589Z113.043° SE44.998°2025-07-04 04:08:08.589Z284.285° WNW
|